san ya , China , Asia

  • Saturday
    December 4

      Cloudy

      61 °F

      North

      3~4L 

  • Sunday
    December 5

    Cloudy  Cloudy

    82 °F  68 °F

    Northeast  Northeast

    4~5L   3~4L 

  • Monday
    December 6

    Cloudy  Cloudy

    82 °F  64 °F

    East  Northeast

    3~4L   3~4L 

  • Tuesday
    December 7

    Cloudy  Cloudy

    82 °F  70 °F

    East  Northeast

    4~5L   3~4L 

  • Wednesday
    December 8

    Cloudy  Cloudy

    79 °F  68 °F

    Northeast  Northeast

    3~4L   3~4L 

  • Thursday
    December 9

    Cloudy  Cloudy

    81 °F  64 °F

    Northeast  No wind

    3~4L    

  • Friday
    December 10

    Cloudy  Cloudy

    81 °F  68 °F

    No wind  Northeast

       3~4L 

Date   Weather Temperature Humidity Total_rain Visibility Wind
05:00 Cloudy 65°F 86.7% 0mm - Northeast  7.2m/s
08:00 Cloudy 72°F 81.2% 0mm - Northeast  7.9m/s
11:00 Cloudy 76°F 72.5% 0mm - Northeast  10.7m/s
14:00 Cloudy 82°F 80.8% 0mm - Northeast  10.1m/s
17:00 Cloudy 74°F 81.1% 0mm - Northeast  9.8m/s
20:00 Cloudy 69°F 67% 0mm - Northeast  10.3m/s
23:00 Cloudy 71°F 88.5% 0mm - Northeast  7.5m/s
02:00 Cloudy 70°F 85.4% 0mm - Northeast  5.7m/s
11:00 Cloudy 76°F 72.5% 0mm - Northeast  10.7m/s
14:00 Cloudy 82°F 80.8% 0mm - Northeast  10.1m/s
17:00 Cloudy 74°F 81.1% 0mm - Northeast  9.8m/s
20:00 Cloudy 69°F 67% 0mm - Northeast  10.3m/s
23:00 Cloudy 71°F 88.5% 0mm - Northeast  7.5m/s
02:00 Cloudy 70°F 85.4% 0mm - Northeast  5.7m/s
05:00 Cloudy 68°F 82.4% 0mm - Northeast  7.2m/s
08:00 Cloudy 72°F 76.2% 0mm - Northeast  7.9m/s
11:00 Sunny 80°F 70.6% 0mm - Northeast  7.9m/s
14:00 Sunny 82°F 70.2% 0mm - Northeast  7.0m/s
17:00 Cloudy 77°F 69.8% 0mm - Northeast  7.1m/s
20:00 Sunny 72°F 64.9% 0mm - Northeast  4.4m/s
23:00 Sunny 68°F 81% 0mm - Northeast  4.6m/s
02:00 Sunny 66°F 83.9% 0mm - Northeast  5.2m/s
05:00 Sunny 67°F 81.7% 0mm - Northeast  7.1m/s
08:00 Sunny 70°F 78.4% 0mm - Northeast  7.9m/s
11:00 Cloudy 78°F 75% 0mm - Northeast  8.0m/s
14:00 Cloudy 83°F 75.7% 0mm - Northeast  10.6m/s
17:00 Cloudy 77°F 71% 0mm - Northeast  10.7m/s
20:00 Cloudy 73°F 68.2% 0mm - Northeast  8.4m/s
23:00 Cloudy 71°F 89.1% 0mm - Northeast  6.1m/s
02:00 Cloudy 71°F 88.6% 0mm - Northeast  6.6m/s
05:00 Cloudy 71°F 86.9% 0mm - Northeast  7.5m/s
08:00 Cloudy 73°F 84.9% 0mm - Northeast  7.9m/s
11:00 Cloudy 79°F 82.8% 0mm - Northeast  6.4m/s
14:00 Cloudy 80°F 86% 0mm - Northeast  5.7m/s
17:00 Cloudy 78°F 87.1% 0mm - Northeast  5.7m/s
20:00 Cloudy 77°F 76.6% 0mm - Northeast  7.9m/s
23:00 Cloudy 77°F 87.5% 0mm - Northeast  7.8m/s
02:00 Cloudy 75°F 92.3% 0mm - Northeast  7.4m/s
05:00 Cloudy 76°F 90.5% 0mm - Northeast  7.3m/s
08:00 Cloudy 76°F 89.4% 0mm - Northeast  7.9m/s
11:00 Cloudy 81°F 81% 0mm - Northeast  7.2m/s
14:00 Cloudy 80°F 80.4% 0mm - Northeast  7.9m/s
17:00 Cloudy 74°F 80.9% 0mm - Northeast  7.8m/s
20:00 Sunny 70°F 82.3% 0mm - Northeast  4.7m/s
23:00 Sunny 68°F 80.6% 0mm - Northeast  2.3m/s
02:00 Sunny 66°F 83% 0mm - Northeast  2.7m/s
05:00 Sunny 68°F 86.8% 0mm - Northeast  2.6m/s
08:00 Sunny 69°F 86.4% 0mm - Northeast  3.3m/s
11:00 Sunny 79°F 77.9% 0mm - Northeast  2.7m/s
14:00 Sunny 80°F 75.1% 0mm - Northeast  2.9m/s
17:00 Sunny 75°F 81.9% 0mm - Northeast  2.7m/s
20:00 Sunny 72°F 71.2% 0mm - Northeast  3.3m/s
23:00 Sunny 71°F 89.5% 0mm - Northeast  5.4m/s
02:00 Cloudy 71°F 86% 0mm - Northeast  6.2m/s
05:00 Cloudy 70°F 85.8% 0mm - Northeast  6.5m/s
08:00 Sunny 73°F 85.6% 0mm - Northeast  7.9m/s